Powrót do katalogu

STARLINK-35775

AktywnyŁącznośćVLEO
NORAD 67038·PAYLOAD·🇺🇸 United States

Wystrzelony Dec 11, 2025 z Cape Canaveral Space Force Station

Loading…

Następne Przeloty (najbliższe 24 godziny)

TLE

ŚwieżeSource: CelesTrak SupGP

Epoka: Sep 15, 2026, 04:10 UTC

1 67038C 25294J   26258.17409722 -.00143310  00000+0 -51896-2 0  2583
2 67038  43.0031  47.7514 0001323 268.1929 352.3469 15.27657802    17

Śledź STARLINK-35775 w czasie rzeczywistym z AllMySat

Download on the App Store